Location: Nachod
(50.4170°N, 16.1670°E)
Time: 22:26:05
(UTC+01:00)

ISS - Visible Passes

Search period start: 24 March 2019 00:00
Search period end: 03 April 2019 01:00
Orbit: 408 x 411 km, 51.6° (Epoch: 24 March)

Date Brightness Start Highest point End Pass type
(mag) Time Alt. Az. Time Alt. Az. Time Alt. Az.
24 Mar -3.4 19:32:37 10° SW 19:35:47 44° SSE 19:37:09 27° E visible
24 Mar -1.2 21:09:00 10° W 21:09:56 18° W 21:09:56 18° W visible
25 Mar -2.8 18:42:18 10° SSW 18:45:14 30° SSE 18:48:12 10° E visible
25 Mar -3.9 20:18:18 10° WSW 20:21:38 86° NNW 20:21:38 86° NNW visible
26 Mar -3.9 19:27:40 10° WSW 19:30:58 75° SSE 19:33:13 19° ENE visible
26 Mar -1.7 21:04:20 10° W 21:05:59 27° WNW 21:05:59 27° WNW visible
27 Mar -3.7 20:13:36 10° W 20:16:55 70° N 20:17:27 55° NE visible
28 Mar -3.7 19:22:52 10° W 19:26:11 79° N 19:28:52 15° ENE visible
28 Mar -2.2 20:59:35 10° WNW 21:01:37 34° WNW 21:01:37 34° WNW visible
29 Mar -3.7 20:08:51 10° W 20:12:09 70° N 20:12:58 46° ENE visible
29 Mar -0.6 21:45:29 10° WNW 21:45:43 11° WNW 21:45:43 11° WNW visible
30 Mar -3.6 19:18:05 10° W 19:21:24 69° N 19:24:16 13° E visible
30 Mar -2.6 20:54:45 10° WNW 20:57:01 40° W 20:57:01 40° W visible
31 Mar -3.9 21:04:01 10° WNW 21:07:21 86° NNE 21:08:18 43° E visible
31 Mar -0.7 22:40:45 10° W 22:41:03 12° W 22:41:03 12° W visible
01 Apr -3.7 20:13:15 10° WNW 20:16:35 74° N 20:19:35 12° E visible
01 Apr -2.6 21:49:55 10° W 21:52:20 37° WSW 21:52:20 37° WSW visible
02 Apr -3.7 20:59:07 10° WNW 21:02:24 64° SSW 21:03:36 35° SE visible
